Regional Weather Roundup
Issued by NWS Sioux Falls, SD

Home | Current Version | Previous Version | Text Only | Print | Product List | Glossary On
Versions: 1 2 3 4 5 6 7 8 9 10 11 12 13 14 15 16 17 18 19 20 21 22 23 24 25 26 27 28 29 30 31 32 33 34 35 36 37 38 39 40 41 42 43 44 45 46 47 48 49 50
000
ASUS43 KFSD 161610
RWRFSD

WEATHER ROUNDUP FOR SE SOUTH DAKOTA/SW MINNESOTA/NW IOWA
NATIONAL WEATHER SERVICE SIOUX FALLS SD
1100 AM CDT MON OCT 16 2017

NOTE: "FAIR" INDICATES FEW OR NO CLOUDS BELOW 12,000 FEET WITH NO
SIGNIFICANT WEATHER AND OR OBSTRUCTIONS TO VISIBILITY.


SDZ038>040-050-052>070-161700-
SOUTHEAST SOUTH DAKOTA

CITY           SKY/WX    TMP DP  RH WIND       PRES   REMARKS
BROOKINGS      SUNNY     54  38  54 S14       30.17F
CHAMBERLAIN    SUNNY     57  37  48 SW9       30.12S
HURON          SUNNY     52  37  56 S9        30.12F
MADISON        FAIR      55  36  47 SW14G22   30.18F
MITCHELL       SUNNY     57  40  52 S10       30.15F
SIOUX FALLS    SUNNY     56  39  53 S7        30.21F
WINNER         FAIR      56  36  47 SW13      30.12F
YANKTON        SUNNY     61  38  42 S12       30.20F
$$

MNZ071-072-080-081-089-090-097-098-161700-
SOUTHWEST MINNESOTA

CITY           SKY/WX    TMP DP  RH WIND       PRES   REMARKS
FAIRMONT       SUNNY     56  36  47 SW12      30.26F
JACKSON        SUNNY     55  34  44 S14       30.25S
LUVERNE        SUNNY     52  36  54 SW7       30.23F
MARSHALL       SUNNY     59  35  40 SW15      30.17F
MONTEVIDEO     SUNNY     57  39  51 SW9       30.16F
PIPESTONE      SUNNY     55  37  50 SW15G21   30.20F
REDWOOD FALLS  SUNNY     56  34  43 S14       30.19F
TRACY          SUNNY     58  37  45 SW16G22   30.20F
WORTHINGTON    SUNNY     56  35  45 SW15G21   30.24F
$$

IAZ001>003-012>014-020>022-031-032-NEZ013-014-SDZ071-161700-
NORTHWEST IOWA

CITY           SKY/WX    TMP DP  RH WIND       PRES   REMARKS
CHEROKEE       SUNNY     55  41  58 SW7       30.28F
DENISON        SUNNY     59  36  41 S14       30.31F
LE MARS        SUNNY     57  37  47 S10       30.25F
ORANGE CITY    SUNNY     57  39  51 S12       30.25F
SHELDON        SUNNY     55  37  50 SW9       30.24F
SIOUX CITY     NOT AVBL
SPENCER        SUNNY     57  35  43 SW13      30.26F
STORM LAKE     SUNNY     57  36  44 SW12G21   30.29S
$$

ABBREVIATIONS USED IN REMARKS
   TC - TEMPERATURE IN CELSIUS
  WCI - WIND CHILL INDEX
   HX - HEAT INDEX
  VSB - VISIBILITY




USA.gov is the U.S. government's official web portal to all federal, state and local government web resources and services.